| time (UTC) | temp C | wind direction | speed KPH | gust KPH | rain 1hr cm | rain 24hr cm | rain mn cm | humidity % | barometer mb |
| 20260503072005 | 21 | 275 | 0.0 | 6.4 | 0.20 | 0.48 | 0.20 | 92 | 1013.8 |
| 20260503071005 | 21 | 0 | 0.0 | 0.0 | 0.15 | 0.43 | 0.15 | 91 | 1013.9 |
| 20260503055005 | 21 | 255 | 3.2 | 6.4 | 0.00 | 0.28 | 0.00 | 91 | 1014.0 |
| 20260503054005 | 21 | 255 | 1.6 | 9.7 | 0.00 | 0.28 | 0.00 | 91 | 1014.2 |
| 20260503053027 | 21 | 243 | 3.2 | 8.0 | 0.00 | 0.28 | 0.00 | 91 | 1014.4 |
| 20260503052026 | 21 | 237 | 1.6 | 6.4 | 0.00 | 0.28 | 0.00 | 92 | 1014.3 |
| 20260503051025 | 21 | 243 | 3.2 | 11.3 | 0.00 | 0.28 | 0.00 | 91 | 1014.5 |
| 20260503050005 | 21 | 261 | 3.2 | 12.9 | 0.00 | 0.28 | 0.00 | 91 | 1014.7 |
| 20260503045005 | 21 | 264 | 4.8 | 9.7 | 0.00 | 0.28 | 0.00 | 92 | 1014.6 |
| 20260503044025 | 21 | 269 | 6.4 | 12.9 | 0.00 | 0.28 | 0.00 | 92 | 1014.8 |
| 20260503043004 | 21 | 266 | 4.8 | 14.5 | 0.00 | 0.28 | 0.00 | 92 | 1014.8 |
| 20260503042025 | 20 | 217 | 1.6 | 9.7 | 0.00 | 0.28 | 0.00 | 92 | 1014.3 |
| 20260503041005 | 20 | 205 | 3.2 | 9.7 | 0.00 | 0.28 | 0.00 | 92 | 1014.2 |
| 20260503040005 | 21 | 197 | 1.6 | 6.4 | 0.00 | 0.28 | 0.00 | 92 | 1014.4 |
| 20260503035005 | 20 | 0 | 0.0 | 0.0 | 0.00 | 0.28 | 0.28 | 92 | 1014.1 |
| 20260503034005 | 20 | 0 | 0.0 | 0.0 | 0.00 | 0.28 | 0.28 | 92 | 1013.6 |
| 20260503033004 | 21 | 0 | 0.0 | 0.0 | 0.00 | 0.28 | 0.28 | 91 | 1013.1 |
| 20260503032005 | 21 | 0 | 0.0 | 0.0 | 0.00 | 0.28 | 0.28 | 91 | 1013.5 |
| 20260503031005 | 21 | 196 | 1.6 | 4.8 | 0.00 | 0.28 | 0.28 | 92 | 1013.3 |
| 20260503030005 | 21 | 194 | 1.6 | 8.0 | 0.08 | 0.28 | 0.28 | 92 | 1013.4 |
| 20260503025026 | 21 | 239 | 4.8 | 11.3 | 0.08 | 0.28 | 0.28 | 92 | 1013.7 |
| 20260503024005 | 21 | 255 | 4.8 | 12.9 | 0.08 | 0.28 | 0.28 | 92 | 1013.6 |
| 20260503023005 | 21 | 266 | 4.8 | 11.3 | 0.08 | 0.28 | 0.28 | 92 | 1013.5 |
| 20260503022004 | 21 | 244 | 4.8 | 9.7 | 0.08 | 0.28 | 0.28 | 92 | 1013.2 |
| 20260503021005 | 21 | 235 | 3.2 | 8.0 | 0.08 | 0.28 | 0.28 | 92 | 1012.7 |
| 20260503020004 | 21 | 234 | 4.8 | 14.5 | 0.03 | 0.20 | 0.20 | 92 | 1012.3 |
| 20260503015005 | 21 | 249 | 4.8 | 14.5 | 0.03 | 0.20 | 0.20 | 92 | 1012.5 |
| 20260503014005 | 21 | 244 | 4.8 | 11.3 | 0.03 | 0.20 | 0.20 | 92 | 1012.2 |
| 20260503013005 | 21 | 227 | 4.8 | 16.1 | 0.03 | 0.20 | 0.20 | 92 | 1011.6 |
| 20260503012005 | 21 | 239 | 4.8 | 11.3 | 0.03 | 0.20 | 0.20 | 92 | 1011.8 |
| 20260503011005 | 21 | 236 | 4.8 | 12.9 | 0.03 | 0.20 | 0.20 | 92 | 1011.5 |
| 20260503010004 | 21 | 238 | 6.4 | 14.5 | 0.00 | 0.18 | 0.18 | 92 | 1011.6 |
| 20260503005005 | 21 | 199 | 3.2 | 11.3 | 0.00 | 0.18 | 0.18 | 91 | 1010.9 |
| 20260503004005 | 21 | 201 | 3.2 | 6.4 | 0.00 | 0.18 | 0.18 | 91 | 1010.6 |
| 20260503003005 | 21 | 224 | 1.6 | 8.0 | 0.00 | 0.18 | 0.18 | 91 | 1011.1 |
| 20260503002004 | 21 | 206 | 1.6 | 9.7 | 0.00 | 0.18 | 0.18 | 91 | 1011.6 |
| 20260503001005 | 21 | 213 | 4.8 | 11.3 | 0.00 | 0.18 | 0.18 | 91 | 1011.7 |
| 20260503000025 | 21 | 216 | 4.8 | 11.3 | 0.00 | 0.18 | 0.18 | 91 | 1011.7 |
| 20260502235004 | 22 | 216 | 4.8 | 11.3 | 0.00 | 0.18 | 0.18 | 90 | 1011.8 |
| 20260502234004 | 22 | 221 | 1.6 | 6.4 | 0.03 | 0.18 | 0.18 | 90 | 1011.7 |
| 20260502233005 | 22 | 219 | 0.0 | 1.6 | 0.03 | 0.18 | 0.18 | 89 | 1011.6 |
| 20260502232005 | 22 | 219 | 0.0 | 1.6 | 0.18 | 0.18 | 0.18 | 89 | 1011.6 |
| 20260502231005 | 22 | 0 | 0.0 | 0.0 | 0.18 | 0.18 | 0.18 | 88 | 1011.6 |
| 20260502230005 | 22 | 0 | 0.0 | 0.0 | 0.18 | 0.18 | 0.18 | 88 | 1011.7 |
| 20260502225004 | 22 | 230 | 1.6 | 9.7 | 0.18 | 0.18 | 0.18 | 87 | 1011.8 |
| 20260502224026 | 22 | 246 | 4.8 | 12.9 | 0.15 | 0.15 | 0.15 | 86 | 1012.0 |
| 20260502223025 | 23 | 270 | 9.7 | 27.4 | 0.15 | 0.15 | 0.15 | 82 | 1012.0 |
| 20260502222026 | 25 | 272 | 12.9 | 32.2 | 0.00 | 0.00 | 0.00 | 75 | 1011.9 |
| 20260502221004 | 25 | 276 | 11.3 | 27.4 | 0.00 | 0.00 | 0.00 | 74 | 1011.6 |
| 20260502220004 | 25 | 280 | 14.5 | 30.6 | 0.00 | 0.00 | 0.00 | 72 | 1011.5 |
| 20260502215004 | 27 | 274 | 9.7 | 24.1 | 0.00 | 0.00 | 0.00 | 67 | 1011.3 |
| 20260502214004 | 28 | 276 | 8.0 | 24.1 | 0.00 | 0.00 | 0.00 | 63 | 1011.0 |
| 20260502213005 | 28 | 270 | 6.4 | 16.1 | 0.00 | 0.00 | 0.00 | 64 | 1010.7 |
| 20260502212004 | 28 | 267 | 6.4 | 16.1 | 0.00 | 0.00 | 0.00 | 63 | 1010.5 |
| 20260502211005 | 29 | 266 | 6.4 | 17.7 | 0.00 | 0.00 | 0.00 | 63 | 1010.5 |
| 20260502210005 | 30 | 273 | 8.0 | 19.3 | 0.00 | 0.00 | 0.00 | 62 | 1010.4 |
| 20260502205004 | 30 | 272 | 8.0 | 25.7 | 0.00 | 0.00 | 0.00 | 62 | 1010.3 |
| 20260502204004 | 30 | 267 | 9.7 | 33.8 | 0.00 | 0.00 | 0.00 | 62 | 1010.4 |
| 20260502203005 | 30 | 274 | 9.7 | 24.1 | 0.00 | 0.00 | 0.00 | 61 | 1010.4 |
| 20260502202004 | 31 | 263 | 9.7 | 22.5 | 0.00 | 0.00 | 0.00 | 60 | 1010.5 |
| 20260502201004 | 31 | 256 | 8.0 | 20.9 | 0.00 | 0.00 | 0.00 | 60 | 1010.2 |
| 20260502200004 | 31 | 251 | 8.0 | 20.9 | 0.00 | 0.00 | 0.00 | 59 | 1010.3 |
| 20260502195004 | 31 | 260 | 9.7 | 27.4 | 0.00 | 0.00 | 0.00 | 60 | 1010.5 |
| 20260502194005 | 31 | 261 | 9.7 | 22.5 | 0.00 | 0.00 | 0.00 | 60 | 1010.4 |
| 20260502193004 | 31 | 258 | 9.7 | 19.3 | 0.00 | 0.00 | 0.00 | 60 | 1010.5 |
| 20260502192004 | 31 | 264 | 12.9 | 29.0 | 0.00 | 0.00 | 0.00 | 59 | 1010.5 |
| 20260502191006 | 31 | 248 | 11.3 | 30.6 | 0.00 | 0.00 | 0.00 | 59 | 1010.6 |
| 20260502190005 | 31 | 251 | 12.9 | 27.4 | 0.00 | 0.00 | 0.00 | 59 | 1010.7 |
| 20260502185004 | 31 | 256 | 14.5 | 30.6 | 0.00 | 0.00 | 0.00 | 58 | 1010.7 |
| 20260502184025 | 32 | 252 | 11.3 | 33.8 | 0.00 | 0.00 | 0.00 | 56 | 1010.8 |
| 20260502182004 | 31 | 243 | 14.5 | 35.4 | 0.00 | 0.00 | 0.00 | 57 | 1010.8 |
| 20260502181025 | 32 | 239 | 11.3 | 27.4 | 0.00 | 0.00 | 0.00 | 57 | 1010.7 |
| 20260502164004 | 31 | 231 | 14.5 | 29.0 | 0.00 | 0.00 | 0.00 | 59 | 1011.3 |
| 20260502163004 | 31 | 232 | 11.3 | 30.6 | 0.00 | 0.00 | 0.00 | 62 | 1011.7 |
| 20260502162004 | 31 | 231 | 11.3 | 35.4 | 0.00 | 0.00 | 0.00 | 62 | 1011.4 |
| 20260502161004 | 31 | 225 | 11.3 | 27.4 | 0.00 | 0.00 | 0.00 | 62 | 1011.5 |
| 20260502152025 | 29 | 230 | 12.9 | 27.4 | 0.00 | 0.00 | 0.00 | 65 | 1011.8 |
| 20260502151004 | 30 | 211 | 11.3 | 33.8 | 0.00 | 0.00 | 0.00 | 64 | 1011.7 |
| 20260502123004 | 22 | 188 | 0.0 | 4.8 | 0.00 | 0.00 | 0.00 | 89 | 1010.9 |
| 20260502122004 | 21 | 196 | 0.0 | 3.2 | 0.00 | 0.00 | 0.00 | 91 | 1011.0 |
| 20260502121025 | 21 | 200 | 1.6 | 8.0 | 0.00 | 0.00 | 0.00 | 92 | 1011.2 |
| 20260502115025 | 20 | 191 | 0.0 | 4.8 | 0.00 | 0.00 | 0.00 | 93 | 1011.0 |
| 20260502114025 | 20 | 0 | 0.0 | 0.0 | 0.00 | 0.00 | 0.00 | 93 | 1011.0 |
| 20260502113025 | 20 | 0 | 0.0 | 0.0 | 0.00 | 0.00 | 0.00 | 93 | 1010.9 |
| 20260502112004 | 20 | 192 | 0.0 | 6.4 | 0.00 | 0.00 | 0.00 | 93 | 1010.9 |
| 20260502111005 | 19 | 193 | 1.6 | 8.0 | 0.00 | 0.00 | 0.00 | 93 | 1010.8 |
| 20260502110004 | 19 | 0 | 0.0 | 0.0 | 0.00 | 0.00 | 0.00 | 92 | 1011.1 |
| 20260502105004 | 19 | 197 | 1.6 | 6.4 | 0.00 | 0.00 | 0.00 | 92 | 1010.9 |
| 20260502104025 | 20 | 205 | 1.6 | 4.8 | 0.00 | 0.00 | 0.00 | 92 | 1011.0 |
| 20260502103004 | 20 | 206 | 1.6 | 6.4 | 0.00 | 0.00 | 0.00 | 92 | 1011.1 |
| 20260502101004 | 20 | 210 | 3.2 | 8.0 | 0.00 | 0.00 | 0.00 | 92 | 1010.9 |
| 20260502091004 | 20 | 0 | 0.0 | 0.0 | 0.00 | 0.00 | 0.00 | 92 | 1011.2 |